Starlink 11365

operational
NORAD ID: 62886 Int'l Des: 2025-024 Owner: SPXS Country: US Constellation: starlink
LEOCIRCULAR

About Starlink 11365

Description loading...

Live Position

Loading 3D Globe...

Upcoming Passes

Altitude History

Altitude vs Time

uPlot chart will show altitude changes over time

Two-Line Element Set

1 62886U 25024H 25353.28020449 .00191876 00000-0 14579-2 0 9990
2 62886 42.9993 305.8353 0003158 253.0046 107.0476 15.70945265 50826
Epoch: Dec 19, 2025 • Age: 11 hours

Current Status

Altitude 359.4 km
Velocity 7.70 km/s
Sub-Earth Point 38.23°N, 68.89°E
Launch Date Feb 4, 2025
Age 0.8 years
Type internet

Technical Details

Classification Payload
Mass 960.00 kg
Dry Mass 910.00 kg
Total Mass 960.00 kg
Length 0.30 m
Diameter 4.10 m
Span 29.00 m
Shape Box + pan
Manufacturer SPXS
Bus Type Starlink V2MD
Phase Status In Orbit
Owner/State SPXS/US

Large Constellations

Loading constellations...